Location: Newark
(42.8481°N, 0.4872°E)
Time: 08:28:33
(UTC+00:00)

A-11 Canister half - Pass Details

Date: 31 October 2020
Orbit: 1516 x 1684 km, 47.2° (Epoch: 04 December)

Event Time Altitude Azimuth Distance (km) Brightness Sun altitude
Rises 21:29:28 0° 266° (W) 4,931 12.1 -49.9°
Reaches altitude 10° 21:32:42 10° 269° (W) 3,936 11.5 -50.4°
Enters shadow 21:37:37 33° 278° (W) 2,527 10.2 -51.1°
